Weather in Gelsenkirchen

Germany     51°30′27″N   7°05′40″E
temp.,
°C
wind,
m/s
gust,
m/s
humid.,
%
clouds,
%
prec.,
mm/h
press.,
hPa
HPBL,
m
11 may, tue
tue1123:00+14ssw118298 0.5 100813
02:00+13w1188100 1.3 100933
05:00+13n0093100 2.7 100814
08:00+12n1294100 5.7 100994
11:00+13n1493100 0.1 1009243
14:00+13nnw2486100 0.1 1009407
17:00+13wnw2490100 0.2 1009350
20:00+12wnw1493100 0.6 1009292
12 may, wed
wed1223:00+11wsw2396100 0.0 1010126
02:00+11w2695100 0.0 1010227
05:00+10w3797100 0.0 1011304
08:00+9w3892100 0.1 1012392
11:00+11w258299 0.1 1013570
14:00+15wnw3354100 0.3 10121511
17:00+15nw3354100 0.1 10111201
20:00+14nnw2468100 0.2 1011432
13 may, thu
thu1323:00+11ne1383100 0.1 101174
02:00+10ene1190100 0.1 101131
05:00+10ene1295100 0.2 101085
08:00+11ene2490100 0.3 1009311
11:00+12ene2375100 0.1 1009578
14:00+14ene3365100 0.1 1008997
17:00+13ne3369100 0.1 1008792
20:00+11ene2377100 0.1 1008548
14 may, fri
fri1423:00+10ene1286100 0.0 1008156
02:00+10n1188100 0.1 1008102
05:00+9n1189100 0.1 1007127
08:00+10n0187100 0.2 1008227
11:00+12w1275100 0.0 1009660
14:00+15nnw2262100 0.2 10081275
17:00+15nnw2258100 0.1 10091299
20:00+13nnw336759 0.2 1009536
15 may, sat
sat1523:00+10nne11845 0.0 101033
02:00+8nw11892 0.0 101124
05:00+7wnw119254 0.0 101135
08:00+9w137890 0.0 1012273
11:00+13wsw356273 0.0 1012896
14:00+17wsw355145 0.0 10111660
17:00+18w344735 0.0 10101780
20:00+15wsw12705 0.5 1010126